Simultaneous Nadir Overpasses (SNOs) Predictions

Prediction of SNOs between AQUA and GOES-15 Satellite Orbit:

Table of predicted SNOs for the next 14.0 days since TLE Epoch: 8/24/2024
Index Date Time (AQUA) AQUA Lat,Lon GOES-15 Lat,Lon Distance(km) Time Diff (sec)
1 08/25/2024 21:53:28 -0.44, 65.49 0.41, 61.61 441.76 80
2 08/26/2024 10:13:34 -0.59, 60.63 -0.41, 61.56 105.75 80
3 08/28/2024 09:56:19 0.28, 64.85 -0.40, 61.54 376.10 80
4 08/28/2024 22:16:15 0.76, 60.02 0.40, 61.57 176.74 80
5 08/30/2024 21:59:00 -0.20, 64.23 0.39, 61.56 305.11 80
6 08/31/2024 10:19:05 -0.83, 59.37 -0.38, 61.52 243.55 80
7 09/02/2024 10:01:47 0.05, 63.61 -0.38, 61.50 239.69 80
8 09/02/2024 22:21:44 0.94, 58.78 0.37, 61.52 311.46 80
9 09/04/2024 22:04:25 0.02, 63.01 0.38, 61.50 172.02 80
10 09/05/2024 10:24:29 -1.07, 58.16 -0.36, 61.48 377.75 80
